Location: �perlecques
(50.8057°N, 2.1521°E)
Time: 16:18:31
(UTC+00:00)

YUBILEINY - Pass Details

Date: 04 April 2023
Orbit: 1478 x 1508 km, 82.5° (Epoch: 01 June)

Event Time Altitude Azimuth Distance (km) Brightness Sun altitude
Rises 00:31:27 0° 344° (NNW) 4,648 ? -33.1°
Reaches altitude 10° 00:35:06 10° 331° (NNW) 3,668 ? -33.0°
Maximum altitude 00:41:21 22° 285° (WNW) 2,816 ? -32.8°
Enters shadow 00:43:09 21° 269° (W) 2,895 ? -32.7°
